Sturgeon Bay, WI

12:34 PM CDT on August 25, 2016 (GMT -0500)
Door County Cherryland

Weather History for KSUE - October, 2012

Change the Weather History Date:

Wednesday, October 10, 2012

  Actual Average Record
Temperature  
Mean Temperature 40 °F -  
Max Temperature 44 °F 57 °F 83 °F (1938)
Min Temperature 35 °F 41 °F 28 °F (1906)
Degree Days  
Heating Degree Days 26    
Moisture  
Dew Point 24 °F    
Average Humidity 54    
Maximum Humidity 75    
Minimum Humidity 36    
Precipitation  
Precipitation 0.00 in - - ()
Sea Level Pressure  
Sea Level Pressure 29.99 in    
Wind  
Wind Speed 13 mph (West)    
Max Wind Speed 21 mph    
Max Gust Speed 26 mph    
Visibility 10 miles    
Events      
Averages and records for this station are not official NWS values.
T = Trace of Precipitation, MM = Missing Value Source: NWS Daily Summary

Daily Weather History Graph

Daily Weather History Graph

Search for Another Location

Airport or City:

Trip Planner

Search our weather history database for the weather conditions in past years. The results will help you decide how hot, cold, wet, or windy it might be!

Date:

Astronomy

Oct. 10, 2012 Rise Set
Actual Time 6:59 AM CDT 6:12 PM CDT
Civil Twilight 6:30 AM CDT 6:42 PM CDT
Nautical Twilight 5:56 AM CDT 7:15 PM CDT
Astronomical Twilight 5:22 AM CDT 7:49 PM CDT
Moon 1:22 AM CDT (10/10) 3:26 PM CDT (10/10)
Length of Visible Light 12h 12m
Length of Day
11h 13m
Waning Crescent, 27% of the Moon is Illuminated
Oct 10
Waning Crescent
Oct 15
New
Oct 21
First Quarter
Oct 29
Full
Nov 6
Last Quarter

Hourly Weather History & Observations

Time (CDT) Temp. Windchill Dew Point Humidity Pressure Visibility Wind Dir Wind Speed Gust Speed Precip Events Conditions
6:15 AM 37.4 °F 30.3 °F 30.2 °F 75% 29.86 in 10.0 mi WNW 10.4 mph 18.4 mph N/A   Mostly Cloudy
6:35 AM 37.4 °F 28.2 °F 30.2 °F 75% 29.87 in 10.0 mi WNW 16.1 mph 20.7 mph N/A   Overcast
6:55 AM 37.4 °F 28.2 °F 30.2 °F 75% 29.87 in 10.0 mi West 16.1 mph 23.0 mph N/A   Overcast
7:15 AM 37.4 °F 28.5 °F 28.4 °F 70% 29.89 in 10.0 mi WNW 15.0 mph 24.2 mph N/A   Mostly Cloudy
7:35 AM 37.4 °F 28.5 °F 28.4 °F 70% 29.89 in 10.0 mi WNW 15.0 mph 21.9 mph N/A   Mostly Cloudy
7:55 AM 37.4 °F 27.8 °F 28.4 °F 70% 29.90 in 10.0 mi WNW 17.3 mph 25.3 mph N/A   Mostly Cloudy
8:35 AM 37.4 °F 27.5 °F 28.4 °F 70% 29.91 in 10.0 mi WNW 18.4 mph 25.3 mph N/A   Scattered Clouds
8:55 AM 37.4 °F 28.2 °F 26.6 °F 65% 29.92 in 10.0 mi WNW 16.1 mph 26.5 mph N/A   Scattered Clouds
9:15 AM 39.2 °F 30.8 °F 28.4 °F 65% 29.92 in 10.0 mi WNW 15.0 mph 21.9 mph N/A   Partly Cloudy
9:35 AM 39.2 °F 29.3 °F 28.4 °F 65% 29.93 in 10.0 mi WNW 20.7 mph 25.3 mph N/A   Scattered Clouds
9:55 AM 39.2 °F 31.2 °F 26.6 °F 61% 29.93 in 10.0 mi West 13.8 mph - N/A   Mostly Cloudy
10:15 AM 39.2 °F 30.5 °F 26.6 °F 61% 29.93 in 10.0 mi WNW 16.1 mph 23.0 mph N/A   Mostly Cloudy
10:35 AM 39.2 °F 30.5 °F 26.6 °F 61% 29.94 in 10.0 mi West 16.1 mph 26.5 mph N/A   Mostly Cloudy
10:55 AM 41.0 °F 32.5 °F 26.6 °F 57% 29.94 in 10.0 mi West 17.3 mph 26.5 mph N/A   Mostly Cloudy
11:15 AM 39.2 °F 30.5 °F 24.8 °F 56% 29.95 in 10.0 mi WNW 16.1 mph 20.7 mph N/A   Overcast
11:55 AM 39.2 °F 30.5 °F 24.8 °F 56% 29.96 in 10.0 mi West 16.1 mph - N/A   Overcast
12:15 PM 39.2 °F 30.5 °F 26.6 °F 61% 29.96 in 10.0 mi WNW 16.1 mph 20.7 mph N/A   Overcast
12:35 PM 39.2 °F 30.2 °F 24.8 °F 56% 29.97 in 10.0 mi WNW 17.3 mph 23.0 mph N/A   Overcast
12:55 PM 39.2 °F 30.5 °F 24.8 °F 56% 29.97 in 10.0 mi WNW 16.1 mph 19.6 mph N/A   Overcast
1:15 PM 41.0 °F 33.5 °F 24.8 °F 53% 29.97 in 10.0 mi WNW 13.8 mph 17.3 mph N/A   Overcast
1:35 PM 41.0 °F 32.8 °F 23.0 °F 49% 29.97 in 10.0 mi WNW 16.1 mph - N/A   Overcast
1:55 PM 42.8 °F 35.8 °F 23.0 °F 46% 29.98 in 10.0 mi NW 13.8 mph 19.6 mph N/A   Overcast
2:15 PM 42.8 °F 36.6 °F 21.2 °F 42% 29.98 in 10.0 mi WNW 11.5 mph 16.1 mph N/A   Overcast
2:35 PM 42.8 °F 37.0 °F 21.2 °F 42% 29.98 in 10.0 mi WNW 10.4 mph 24.2 mph N/A   Overcast
2:55 PM 44.6 °F 37.2 °F 21.2 °F 39% 29.99 in 10.0 mi WNW 17.3 mph 25.3 mph N/A   Overcast
3:15 PM 44.6 °F 36.9 °F 19.4 °F 37% 29.99 in 10.0 mi NW 18.4 mph 25.3 mph N/A   Overcast
3:35 PM 42.8 °F 35.4 °F 19.4 °F 39% 29.99 in 10.0 mi WNW 15.0 mph 21.9 mph N/A   Mostly Cloudy
3:55 PM 44.6 °F 37.8 °F 19.4 °F 37% 29.99 in 10.0 mi WNW 15.0 mph - N/A   Scattered Clouds
4:15 PM 42.8 °F 36.2 °F 19.4 °F 39% 30.00 in 10.0 mi WNW 12.7 mph 19.6 mph N/A   Partly Cloudy
4:35 PM 42.8 °F 35.1 °F 19.4 °F 39% 30.00 in 10.0 mi WNW 16.1 mph 25.3 mph N/A   Partly Cloudy
4:55 PM 42.8 °F 35.8 °F 19.4 °F 39% 30.00 in 10.0 mi WNW 13.8 mph 18.4 mph N/A   Clear
5:15 PM 44.6 °F 38.1 °F 19.4 °F 37% 30.01 in 10.0 mi NW 13.8 mph - N/A   Scattered Clouds
5:35 PM 44.6 °F 37.4 °F 19.4 °F 37% 30.02 in 10.0 mi NW 16.1 mph 24.2 mph N/A   Scattered Clouds
5:55 PM 42.8 °F 36.6 °F 19.4 °F 39% 30.02 in 10.0 mi WNW 11.5 mph 18.4 mph N/A   Scattered Clouds
6:15 PM 42.8 °F 37.5 °F 17.6 °F 36% 30.03 in 10.0 mi WNW 9.2 mph - N/A   Partly Cloudy
6:35 PM 42.8 °F 36.6 °F 19.4 °F 39% 30.04 in 10.0 mi WNW 11.5 mph - N/A   Clear
6:55 PM 42.8 °F 38.6 °F 19.4 °F 39% 30.04 in 10.0 mi WNW 6.9 mph - N/A   Clear
7:15 PM 41.0 °F 38.0 °F 19.4 °F 42% 30.05 in 10.0 mi West 4.6 mph - N/A   Clear
7:35 PM 41.0 °F 38.0 °F 21.2 °F 45% 30.05 in 10.0 mi WSW 4.6 mph - N/A   Clear
7:55 PM 35.6 °F 31.7 °F 21.2 °F 56% 30.05 in 10.0 mi SSW 4.6 mph - N/A   Clear
8:15 PM 35.6 °F 31.7 °F 23.0 °F 60% 30.06 in 10.0 mi SSW 4.6 mph - N/A   Clear
8:35 PM 37.4 °F 34.9 °F 21.2 °F 52% 30.05 in 10.0 mi South 3.5 mph - N/A   Clear
8:55 PM 35.6 °F 31.7 °F 23.0 °F 60% 30.06 in 10.0 mi South 4.6 mph - N/A   Clear
9:15 PM 35.6 °F 31.7 °F 21.2 °F 56% 30.06 in 10.0 mi SSW 4.6 mph - N/A   Clear
9:35 PM 35.6 °F 29.9 °F 23.0 °F 60% 30.06 in 10.0 mi South 6.9 mph - N/A   Clear
9:55 PM 35.6 °F 29.2 °F 24.8 °F 65% 30.06 in 10.0 mi South 8.1 mph - N/A   Clear
10:15 PM 35.6 °F 29.9 °F 24.8 °F 65% 30.06 in 10.0 mi SSW 6.9 mph - N/A   Clear
10:55 PM 35.6 °F 29.2 °F 24.8 °F 65% 30.06 in 10.0 mi SSW 8.1 mph - N/A   Overcast
11:15 PM 35.6 °F 29.2 °F 24.8 °F 65% 30.06 in 10.0 mi SSW 8.1 mph - N/A   Overcast
11:35 PM 35.6 °F 29.9 °F 24.8 °F 65% 30.04 in 10.0 mi SSW 6.9 mph - N/A   Overcast
11:55 PM 35.6 °F 29.9 °F 24.8 °F 65% 30.05 in 10.0 mi SSW 6.9 mph - N/A   Overcast